TimeCDT,TemperatureF,Dew PointF,Humidity,Sea Level PressureIn,VisibilityMPH,Wind Direction,Wind SpeedMPH,Gust SpeedMPH,PrecipitationIn,Events,Conditions,WindDirDegrees,DateUTC
12:53 AM,78.1,75.0,90,30.02,10.0,NE,4.6,-,N/A,,Clear,40,2013-09-05 05:53:00
1:53 AM,78.1,73.9,87,30.01,10.0,ENE,4.6,-,N/A,,Clear,60,2013-09-05 06:53:00
2:53 AM,78.1,75.0,90,30.00,10.0,East,5.8,-,N/A,,Clear,80,2013-09-05 07:53:00
3:53 AM,78.1,73.9,87,29.99,10.0,NE,3.5,-,N/A,,Partly Cloudy,40,2013-09-05 08:53:00
4:53 AM,75.9,73.0,91,30.00,10.0,NNE,4.6,-,N/A,,Clear,30,2013-09-05 09:53:00
5:53 AM,77.0,73.9,90,30.00,9.0,NE,6.9,-,N/A,,Mostly Cloudy,40,2013-09-05 10:53:00
6:53 AM,75.0,73.0,94,30.01,8.0,NE,5.8,-,N/A,,Clear,40,2013-09-05 11:53:00
7:53 AM,77.0,75.0,94,30.03,7.0,NE,5.8,-,N/A,,Clear,40,2013-09-05 12:53:00
8:53 AM,82.9,75.9,79,30.04,10.0,NE,6.9,-,N/A,,Clear,40,2013-09-05 13:53:00
9:53 AM,86.0,75.9,72,30.06,10.0,NE,10.4,-,N/A,,Clear,50,2013-09-05 14:53:00
10:53 AM,89.1,73.0,59,30.06,10.0,ENE,10.4,-,N/A,,Partly Cloudy,70,2013-09-05 15:53:00
11:12 AM,86.0,73.4,66,30.07,10.0,East,13.8,-,N/A,Thunderstorm,Scattered Clouds,80,2013-09-05 16:12:00
11:24 AM,80.6,71.6,74,30.07,10.0,SE,15.0,-,N/A,,Mostly Cloudy,130,2013-09-05 16:24:00
11:53 AM,82.9,73.9,74,30.07,10.0,SE,4.6,-,N/A,,Clear,130,2013-09-05 16:53:00
12:53 PM,80.1,73.0,79,30.06,4.0,ENE,5.8,-,0.02,Rain,Rain,60,2013-09-05 17:53:00
1:53 PM,90.0,75.9,63,30.03,10.0,ESE,9.2,-,0.00,,Mostly Cloudy,120,2013-09-05 18:53:00
2:53 PM,90.0,75.0,61,30.01,10.0,SE,17.3,21.9,N/A,,Scattered Clouds,130,2013-09-05 19:53:00
3:53 PM,91.0,75.0,59,30.01,10.0,ESE,17.3,-,N/A,,Partly Cloudy,120,2013-09-05 20:53:00
4:53 PM,89.1,73.0,59,30.00,10.0,SE,13.8,20.7,N/A,,Clear,130,2013-09-05 21:53:00
5:53 PM,88.0,73.9,63,30.00,10.0,ESE,16.1,-,N/A,,Clear,120,2013-09-05 22:53:00
6:53 PM,86.0,73.0,65,30.00,10.0,SE,11.5,-,N/A,,Clear,130,2013-09-05 23:53:00
7:53 PM,82.9,73.9,74,30.02,10.0,ESE,5.8,-,N/A,,Clear,120,2013-09-06 00:53:00
8:53 PM,82.0,75.0,79,30.02,10.0,ESE,3.5,-,N/A,,Clear,120,2013-09-06 01:53:00
9:53 PM,81.0,75.0,82,30.04,10.0,East,3.5,-,N/A,,Clear,90,2013-09-06 02:53:00
10:53 PM,81.0,75.9,85,30.04,10.0,East,3.5,-,N/A,,Scattered Clouds,90,2013-09-06 03:53:00
11:00 PM,82.4,75.2,79,30.05,10.0,Calm,Calm,-,N/A,,Mostly Cloudy,0,2013-09-06 04:00:00
11:23 PM,80.6,75.2,84,30.05,10.0,Calm,Calm,-,N/A,,Scattered Clouds,0,2013-09-06 04:23:00
11:53 PM,79.0,75.0,88,30.04,10.0,ENE,3.5,-,N/A,,Partly Cloudy,60,2013-09-06 04:53:00